This is the latest recevied weather packets stored in our database for station/object T10BNorth. If no packets are shown the sender has not sent any weather packets the latest 10 day(s).
| Time | Temp. | Humidity | Pressure | Rain* | Wind** | Luminosity | Snow |
|---|---|---|---|---|---|---|---|
| 1778006027 | 24.44° C | 44% | 1003.1 hPa | 0 mm | - | 823 W/m² | - |
| 1778005969 | 24.44° C | 45% | 1003.2 hPa | 0 mm | - | 823 W/m² | - |
| 1778005909 | 24.44° C | 45% | 1003.3 hPa | 0 mm | - | 823 W/m² | - |
| 1778005836 | 23.89° C | 45% | 1003.2 hPa | 0 mm | - | 861 W/m² | - |
| 1778005778 | 23.89° C | 45% | 1003.3 hPa | 0 mm | - | 838 W/m² | - |
| 1778005718 | 23.89° C | 45% | 1003.4 hPa | 0 mm | - | 861 W/m² | - |
| 1778005656 | 23.89° C | 45% | 1003.2 hPa | 0 mm | - | 378 W/m² | - |
| 1778005600 | 23.89° C | 44% | 1003.4 hPa | 0 mm | - | 378 W/m² | - |
| 1778005529 | 23.89° C | 46% | 1003.5 hPa | 0 mm | - | 329 W/m² | - |
| 1778005469 | 23.89° C | 44% | 1003.5 hPa | 0 mm | - | 287 W/m² | - |
| 1778005410 | 23.89° C | 44% | 1003.4 hPa | 0 mm | - | 272 W/m² | - |
| 1778005350 | 23.89° C | 44% | 1003.5 hPa | 0 mm | - | 288 W/m² | - |
| 1778005295 | 23.89° C | 44% | 1003.5 hPa | 0 mm | - | 445 W/m² | - |
| 1778005223 | 23.89° C | 44% | 1003.4 hPa | 0 mm | - | 445 W/m² | - |
| 1778005163 | 23.89° C | 44% | 1003.4 hPa | 0 mm | - | 443 W/m² | - |
| 1778005104 | 23.89° C | 44% | 1003.3 hPa | 0 mm | - | 380 W/m² | - |
| 1778005043 | 23.89° C | 44% | 1003.2 hPa | 0 mm | - | 308 W/m² | - |
| 1778004989 | 23.89° C | 44% | 1003.3 hPa | 0 mm | - | 330 W/m² | - |
| 1778004911 | 23.89° C | 44% | 1003.3 hPa | 0 mm | - | 265 W/m² | - |
| 1778004849 | 24.44° C | 43% | 1003.3 hPa | 0 mm | - | 258 W/m² | - |
| 1778004790 | 24.44° C | 44% | 1003.4 hPa | 0 mm | - | 262 W/m² | - |
| 1778004730 | 24.44° C | 44% | 1003.4 hPa | 0 mm | - | 287 W/m² | - |
| 1778004674 | 24.44° C | 43% | 1003.4 hPa | 0 mm | - | 290 W/m² | - |
| 1778004603 | 24.44° C | 44% | 1003.3 hPa | 0 mm | - | 898 W/m² | - |
| 1778004543 | 24.44° C | 44% | 1003.4 hPa | 0 mm | - | 431 W/m² | - |
* Rain latest hour (hover to see other rain measurements)
** Current wind speed in m/s (hover to see current wind gust speed)